[Iaude] MPEC G28: 2015 FA432 [a=47.54,e=0.11,i=7.2,H=6.96]

mpec at cfa.harvard.edu mpec at cfa.harvard.edu
Wed Apr 3 16:15:29 EDT 2024


M.P.E.C. 2024-G28                                 Issued 2024 April 3, 20:13 UT

     The Minor Planet Electronic Circulars contain information on unusual
         minor planets, routine data on comets and natural satellites,
         and occasional editorial announcements.  They are published
    on behalf of Division F of the International Astronomical Union by the
          Minor Planet Center, Smithsonian Astrophysical Observatory,
                          Cambridge, MA 02138, U.S.A.
			  
             Prepared using the Tamkin Foundation Computer Network

                              MPC at CFA.HARVARD.EDU
            URL https://www.minorplanetcenter.net/    ISSN 1523-6714

                                   2015 FA432                                   


Additional Observations:
     K15Fh2A !C2020 02 27.23493 12 38 09.58 +03 36 14.6          23.9 r EG028W84
     K15Fh2A !C2020 02 27.28473 12 38 09.43 +03 36 15.7                 EG028W84
     K15Fh2A !C2020 02 27.38435 12 38 09.12 +03 36 18.2                 EG028W84
     K15Fh2A !C2020 02 28.29501 12 38 06.36 +03 36 40.5                 EG028W84
     K15Fh2A !C2020 02 28.34470 12 38 06.22 +03 36 41.6                 EG028W84
     K15Fh2A !C2020 02 28.39440 12 38 06.07 +03 36 42.9                 EG028W84
     K15Fh2A 5C2023 03 21.37054 12 47 09.010+02 45 20.81         24.0 rVEG028568
     K15Fh2A 5C2023 03 21.58822 12 47 08.225+02 45 26.15         23.9 rVEG028568
     K15Fh2A  C2023 05 16.05219 12 44 00.953+03 03 12.51         24.0 rVEG028304
     K15Fh2A 4C2023 05 23.21331 12 43 43.986+03 04 13.73               VEG028G37
     K15Fh2A 4C2023 05 23.22071 12 43 43.975+03 04 13.79               VEG028G37
     K15Fh2A 4C2023 05 24.20806 12 43 41.854+03 04 20.47               VEG028G37
     K15Fh2A  C2024 03 07.28974 12 51 19.555+02 19 36.10         24.1 rVEG028304
     K15Fh2A  C2024 03 08.29865 12 51 16.294+02 20 00.88         24.0 rVEG028304

Observer details:
304 Las Campanas Observatory.  Observer S. S. Sheppard.  6.5-m Magellan-Baade
    telescope + CCD.
568 Maunakea.  Observers D. J. Tholen, S. S. Sheppard, C. Trujillo.  Measurer
    S. S. Sheppard.  8.2-m Subaru reflector + CCD.
G37 Lowell Discovery Telescope.  Observers C. Trujillo, K. Farrell.  4-m
    Lowell Discovery Telescope + CCD.
W84 Cerro Tololo-DECam.  Observer .  Measurer F. Valdes.  4.0-m CTIO
    reflector.

Orbital elements:
2015 FA432                                                                      
Epoch 2024 Mar. 31.0 TT = JDT 2460400.5                 Alexandersen            
M 208.91737              (2000.0)            P               Q                  
n   0.00300686     Peri.  234.77393     +0.96906261     +0.21757386             
a  47.5401200      Node   112.40970     -0.16484314     +0.92193546             
e   0.1116954      Incl.    7.24135     -0.18369649     +0.32046313             
P 328              H    6.96          G   0.15           U   5                  
Residuals in seconds of arc
150317 568  0.1-  0.7-    200227 W84  0.1+  0.2+    230516 304  0.1+  0.0
150317 568  0.2-  0.9-    200227 W84  0.0   0.2+    230523 G37  0.1-  0.1-
150317 568  0.3-  0.8-    200228 W84  0.1-  0.3+    230523 G37  0.0   0.1-
150418 304  0.2+  0.9+    200228 W84  0.1+  0.1+    230524 G37  0.0   0.1-
150418 304  0.1+  0.5+    200228 W84  0.2+  0.2+    240307 304  0.1-  0.1-
150420 304  0.1+  0.4+    230321 568  0.1-  0.0     240308 304  0.1-  0.3-
200227 W84  0.0   0.3+    230321 568  0.1+  0.1-

Ephemeris:
2015 FA432               a,e,i = 47.54, 0.11, 7                  q = 42.2301
Date    TT    R. A. (2000) Decl.     Delta      r    Elong.  Phase     V
2024 03 04    12 51 30.0 +02 18 15  51.4359 52.3116   151.8     0.5    24.2
...
2024 03 19    12 50 39.8 +02 24 28  51.3439 52.3100   165.9     0.3    24.2
...
2024 03 27    12 50 11.0 +02 27 46  51.3215 52.3091   171.7     0.2    24.2
...
2024 04 02    12 49 48.9 +02 30 10  51.3172 52.3084   172.5     0.1    24.1
2024 04 03    12 49 45.3 +02 30 33  51.3175 52.3083   172.2     0.1    24.2
2024 04 04    12 49 41.6 +02 30 57  51.3181 52.3082   171.8     0.2    24.2
...
2024 04 10    12 49 19.5 +02 33 13  51.3281 52.3075   167.7     0.2    24.2
...
2024 04 18    12 48 50.6 +02 36 02  51.3577 52.3066   160.7     0.4    24.2
...
2024 05 03    12 48 00.3 +02 40 30  51.4607 52.3049   146.6     0.6    24.2

M. P. C. Staff               (C) Copyright 2024 MPC           M.P.E.C. 2024-G28





More information about the Iaude mailing list